Wheeling, WV

9:44 PM EST on December 14, 2019 (GMT -0500)
Wheeling-Ohio County

Weather History for KHLG - October, 2019

Change the Weather History Date:

Monday, October 7, 2019

  Actual Average Record
Temperature  
Mean Temperature 55 °F 56 °F  
Max Temperature 60 °F 66 °F 90 °F (1941)
Min Temperature 49 °F 47 °F 24 °F (1935)
Degree Days  
Heating Degree Days 10 9  
Month to date heating degree days 28 58  
Since 1 July heating degree days 29 159  
Cooling Degree Days 0 1  
Month to date cooling degree days 40 7  
Year to date cooling degree days 986 685  
Growing Degree Days 6 (Base 50)    
Moisture  
Dew Point 53 °F    
Average Humidity 92    
Maximum Humidity 100    
Minimum Humidity 83    
Precipitation  
Precipitation 1.07 in 0.08 in 1.07 in (2019)
Month to date precipitation 1.60 0.59  
Year to date precipitation 29.58 30.36  
Sea Level Pressure  
Sea Level Pressure 30.18 in    
Wind  
Wind Speed 3 mph (NNW)    
Max Wind Speed 16 mph    
Max Gust Speed 21 mph    
Visibility 4 miles    
Events Fog , Rain    
T = Trace of Precipitation, MM = Missing Value Source: NWS Daily Summary

Daily Weather History Graph

Daily Weather History Graph

Search for Another Location

Airport or City:

Astronomy

Oct. 07, 2019 Rise Set
Actual Time 7:24 AM EDT 6:55 PM EDT
Civil Twilight 6:57 AM EDT 7:22 PM EDT
Nautical Twilight 6:26 AM EDT 7:54 PM EDT
Astronomical Twilight 5:54 AM EDT 8:25 PM EDT
Moon 4:16 PM EDT (10/7) 1:15 AM EDT (10/7)
Length of Visible Light 12h 25m
Length of Day
11h 30m
Waxing Gibbous, 69% of the Moon is Illuminated
Oct 7
Waxing Gibbous
Oct 13
Full
Oct 21
Last Quarter
Oct 27
New
Nov 4
First Quarter

Hourly Weather History & Observations

Time (EDT) Temp. Dew Point Humidity Pressure Visibility Wind Dir Wind Speed Gust Speed Precip Events Conditions
12:01 AM 63.0 °F 62.1 °F 97% 30.11 in 1.8 mi NW 4.6 mph - 0.08 in Rain Heavy Rain
12:21 AM 62.1 °F 61.0 °F 96% 30.10 in 2.5 mi North 11.5 mph - 0.25 in Rain Rain
12:30 AM 61.0 °F 59.0 °F 93% 30.12 in 3.0 mi NW 17.3 mph 23.0 mph 0.29 in Rain Rain
12:53 AM 60.1 °F 57.9 °F 93% 30.11 in 6.0 mi NNW 10.4 mph - 0.36 in Rain Light Rain
1:25 AM 59.0 °F 57.0 °F 93% 30.12 in 10.0 mi NW 9.2 mph - 0.01 in Rain Light Rain
1:40 AM 57.9 °F 55.9 °F 93% 30.12 in 2.5 mi NW 9.2 mph - 0.07 in Rain Heavy Rain
1:44 AM 57.9 °F 55.9 °F 93% 30.12 in 3.0 mi NW 10.4 mph - 0.09 in Rain Heavy Rain
1:53 AM 57.9 °F 54.0 °F 87% 30.11 in 5.0 mi NNW 15.0 mph - 0.12 in Rain Rain
2:19 AM 55.9 °F 54.0 °F 93% 30.12 in 1.8 mi NNW 8.1 mph - 0.15 in Rain Heavy Rain
2:31 AM 55.9 °F 54.0 °F 93% 30.12 in 1.8 mi NNW 6.9 mph - 0.29 in Rain Heavy Rain
2:41 AM 55.9 °F 54.0 °F 93% 30.11 in 2.5 mi NNE 8.1 mph - 0.35 in Rain Heavy Rain
2:53 AM 55.0 °F 54.0 °F 96% 30.12 in 4.0 mi ENE 4.6 mph - 0.39 in Rain Rain
3:53 AM 55.0 °F 53.1 °F 93% 30.11 in 4.0 mi NE 4.6 mph - 0.06 in Rain Rain
4:11 AM 55.0 °F 54.0 °F 96% 30.11 in 5.0 mi North 5.8 mph - 0.02 in Rain Light Rain
4:53 AM 55.0 °F 53.1 °F 93% 30.14 in 5.0 mi WNW 4.6 mph - 0.05 in Rain Light Rain
5:53 AM 54.0 °F 53.1 °F 97% 30.16 in 6.0 mi NW 6.9 mph - 0.07 in Rain Light Rain
6:15 AM 54.0 °F 53.1 °F 97% 30.17 in 5.0 mi NW 5.8 mph - 0.04 in Rain Rain
6:21 AM 54.0 °F 53.1 °F 97% 30.17 in 4.0 mi NW 3.5 mph - 0.05 in Rain Rain
6:49 AM 53.6 °F 53.6 °F 100% 30.18 in 2.5 mi NW 4.6 mph - 0.09 in Rain Light Rain
6:53 AM 54.0 °F 53.1 °F 97% 30.18 in 3.0 mi NNW 3.5 mph - 0.09 in Rain Light Rain
7:15 AM 54.0 °F 53.1 °F 97% 30.17 in 6.0 mi North 4.6 mph - 0.03 in Rain Light Rain
7:53 AM 54.0 °F 53.1 °F 97% 30.18 in 3.0 mi NNW 5.8 mph - 0.07 in Rain Rain
8:08 AM 54.0 °F 53.1 °F 97% 30.17 in 4.0 mi North 5.8 mph - 0.01 in Rain Light Rain
8:53 AM 55.0 °F 53.1 °F 93% 30.18 in 8.0 mi North 3.5 mph - 0.02 in   Overcast
9:20 AM 55.0 °F 53.1 °F 93% 30.17 in 9.0 mi NE 5.8 mph - N/A   Overcast
9:53 AM 55.9 °F 54.0 °F 93% 30.18 in 10.0 mi Calm Calm - 0.00 in Rain Light Rain
10:02 AM 55.9 °F 54.0 °F 93% 30.18 in 2.0 mi NNW 3.5 mph - 0.00 in Rain Light Rain
10:53 AM 55.9 °F 54.0 °F 93% 30.19 in 2.0 mi NW 4.6 mph - 0.03 in Rain Light Rain
11:00 AM 55.9 °F 54.0 °F 93% 30.19 in 4.0 mi Calm Calm - 0.01 in Rain Light Rain
11:08 AM 55.9 °F 53.1 °F 90% 30.19 in 6.0 mi NNW 4.6 mph - 0.01 in Rain Light Rain
11:53 AM 55.9 °F 52.0 °F 87% 30.19 in 10.0 mi NE 3.5 mph - 0.03 in Rain Light Rain
12:53 PM 55.9 °F 51.1 °F 84% 30.21 in 8.0 mi North 5.8 mph - 0.03 in Rain Light Rain
1:53 PM 55.0 °F 50.0 °F 83% 30.20 in 6.0 mi Calm Calm - 0.04 in Rain Light Rain
2:43 PM 55.0 °F 52.0 °F 89% 30.18 in 7.0 mi SE 5.8 mph - 0.05 in Rain Light Rain
2:53 PM 55.0 °F 52.0 °F 89% 30.19 in 9.0 mi South 5.8 mph - 0.05 in Rain Light Rain
3:53 PM 55.0 °F 52.0 °F 89% 30.17 in 10.0 mi Calm Calm - 0.02 in Rain Light Rain
4:53 PM 55.0 °F 52.0 °F 89% 30.17 in 10.0 mi Calm Calm - 0.00 in   Overcast
5:53 PM 54.0 °F 51.1 °F 90% 30.18 in 10.0 mi ENE 5.8 mph - N/A   Scattered Clouds
6:53 PM 54.0 °F 52.0 °F 93% 30.20 in 10.0 mi Calm Calm - N/A   Clear
7:24 PM 53.1 °F 51.1 °F 93% 30.20 in 1.8 mi Calm Calm - N/A   Scattered Clouds
7:33 PM 53.1 °F 51.1 °F 93% 30.19 in 3.0 mi Calm Calm - N/A   Scattered Clouds
7:49 PM 53.6 °F 51.8 °F 94% 30.19 in 1.8 mi Calm Calm - N/A   Partly Cloudy
7:53 PM 53.1 °F 51.1 °F 93% 30.20 in 1.8 mi Calm Calm - N/A   Clear
7:58 PM 53.1 °F 51.1 °F 93% 30.19 in 3.0 mi Calm Calm - N/A   Clear
8:13 PM 52.0 °F 51.1 °F 97% 30.20 in 1.8 mi Calm Calm - N/A   Clear
8:19 PM 52.0 °F 51.1 °F 97% 30.20 in 3.0 mi Calm Calm - N/A   Clear
8:45 PM 52.0 °F 51.1 °F 97% 30.22 in 1.5 mi SSE 4.6 mph - N/A   Clear
8:47 PM 51.8 °F 51.8 °F 100% 30.22 in 0.8 mi South 4.6 mph - N/A   Mist
8:53 PM 52.0 °F 51.1 °F 97% 30.23 in 0.5 mi South 4.6 mph - N/A Fog Fog
8:57 PM 52.0 °F 51.1 °F 97% 30.22 in 1.2 mi South 4.6 mph - N/A   Partly Cloudy
9:02 PM 52.0 °F 51.1 °F 97% 30.22 in 0.8 mi South 4.6 mph - N/A   Mist
9:09 PM 52.0 °F 51.1 °F 97% 30.23 in 0.2 mi South 3.5 mph - N/A Fog Fog
9:24 PM 52.0 °F 51.1 °F 97% 30.23 in 0.8 mi Calm Calm - N/A   Mist
9:27 PM 51.1 °F 51.1 °F 100% 30.23 in 3.0 mi Calm Calm - N/A   Scattered Clouds
9:32 PM 52.0 °F 50.0 °F 93% 30.23 in 1.8 mi Calm Calm - N/A   Partly Cloudy
9:49 PM 51.8 °F 50.0 °F 94% 30.24 in 3.0 mi Calm Calm - N/A   Clear
9:50 PM 52.0 °F 50.0 °F 93% 30.25 in 4.0 mi Calm Calm - N/A   Clear
10:27 PM 52.0 °F 51.1 °F 97% 30.24 in 1.8 mi ESE 3.5 mph - N/A   Partly Cloudy
10:31 PM 50.0 °F 48.9 °F 96% 30.24 in 0.5 mi Calm Calm - N/A Fog Fog
10:53 PM 51.1 °F 50.0 °F 96% 30.26 in 0.2 mi Calm Calm - N/A Fog Fog
11:13 PM 51.1 °F 50.0 °F 96% 30.25 in 0.5 mi Calm Calm - N/A Fog Fog
11:47 PM 50.0 °F 48.2 °F 94% 30.26 in 0.8 mi SSW 3.5 mph - N/A   Mist
11:48 PM 50.0 °F 50.0 °F 100% 30.26 in 0.5 mi SSW 3.5 mph - N/A Fog Fog
11:53 PM 50.0 °F 48.9 °F 96% 30.27 in 0.5 mi SSW 3.5 mph - N/A Fog Fog